If you wish to contribute or participate in the discussions about articles you are invited to join SKYbrary as a registered user

La Gomera

From SKYbrary Wiki
GCGM
Revision as of 19:01, 28 November 2011 by Timo.Kouwenhoven (Talk | contribs)

(diff) ← Older revision | Latest revision (diff) | Newer revision → (diff)
Airport
ICAO: GCGM
Summary
Name La Gomera
Region Europe
Territory Canary Islands ES.gif
Location San Sebastián de la Gomera
Serving
Coordinates 28° 1' 50.407", -17° 12' 45.0731"
Close to Canarias Sea
Runways
Designator Length Width Surface ROPS
9/27 1500 m4,921.26 ft 30 m98.425 ft ASP /
METAR
Observation GCGM 261830Z AUTO 09004KT 060V120 9999 NCD 17/10 Q1019 RMK R09/VRB03KT ARP/12005KT 090V150
Station La Gomera
Date/Time 26 March 2017 18:30:00
Wind direction 90°
Wind speed 04 kts
Lowest cloud amount no clouds detected
Temperature 17°C
Dew point 10°C
Humidity 63%
QNH 1019 hPa
Weather condition n/a

WX
Tag(s) Volcanic Ash

La Gomera Airport (IATA: GMZ) is an airport located near the village of Alajeró, Spain, 34 km18.359 nm
34,000 m
111,548.557 ft
southwest by road from the Gomera island's capital city, San Sebastián de la Gomera.